GW4960 Weather Reports


time (UTC)temp
C
wind
direction
speed
KPH
gust
KPH
rain 1hr
cm
rain 24hr
cm
rain mn
cm
humidity
%
barometer
mb
20260906060821 21 0.0 0.0 0.00 0.03 0.00 98 1013.2
20260906055821 21 0.0 0.0 0.00 0.03 0.00 98 1013.2
20260906054820 21 0.0 0.0 0.00 0.03 0.00 98 1013.3
20260906053902 21 0.0 0.0 0.00 0.03 0.00 98 1013.4
20260906052840 21 0.0 0.0 0.00 0.03 0.00 98 1013.6
20260906051820 21 0.0 0.0 0.00 0.03 0.00 98 1013.6
20260906050901 21 0.0 0.0 0.00 0.03 0.00 98 1013.7
20260906045820 21 0.0 0.0 0.00 0.03 0.00 98 1013.8
20260906044841 21 0.0 0.0 0.00 0.03 0.00 98 1013.8
20260906043820 21 0.0 0.0 0.00 0.03 0.00 98 1013.9
20260906042820 21 0.0 0.0 0.00 0.03 0.00 97 1013.9
20260906041821 21 0.0 0.0 0.00 0.03 0.00 97 1014.0
20260906040820 21 0.0 0.0 0.00 0.03 0.00 97 1014.0
20260906035821 21 0.0 0.0 0.00 0.03 0.03 97 1014.1
20260906034821 21 0.0 0.0 0.00 0.03 0.03 97 1014.1
20260906033821 21 0.0 0.0 0.00 0.03 0.03 97 1014.2
20260906032821 21 0.0 0.0 0.00 0.03 0.03 97 1014.2
20260906031820 21 0.0 0.0 0.00 0.03 0.03 97 1014.3
20260906030821 21 0.0 0.0 0.00 0.03 0.03 96 1014.3
20260906025821 21 0.0 0.0 0.00 0.03 0.03 96 1014.2
20260906024821 21 0.0 0.0 0.00 0.03 0.03 96 1014.3
20260906023821 21 0.0 0.0 0.00 0.03 0.03 96 1014.1
20260906022820 21 0.0 0.0 0.00 0.03 0.03 95 1013.9
20260906021821 21 0.0 0.0 0.00 0.03 0.03 95 1013.8
20260906020821 21 0.0 0.0 0.00 0.03 0.03 95 1013.5
20260906015820 21 0.0 0.0 0.00 0.03 0.03 95 1013.6
20260906014821 21 0.0 0.0 0.00 0.03 0.03 94 1013.4
20260906013821 21 0.0 0.0 0.00 0.03 0.03 94 1013.5
20260906012821 22 0.0 0.0 0.00 0.03 0.03 94 1013.5
20260906011821 22 0.0 0.0 0.00 0.03 0.03 93 1013.4
20260906010821 22 0.0 0.0 0.00 0.03 0.03 93 1013.3
20260906005821 22 0.0 0.0 0.00 0.03 0.03 92 1013.3
20260906004821 22 0.0 0.0 0.00 0.03 0.03 92 1013.2
20260906003821 22 0.0 0.0 0.00 0.03 0.03 91 1013.3
20260906002821 23 0.0 0.0 0.00 0.03 0.03 89 1013.2
20260906001841 23 0.0 0.0 0.00 0.03 0.03 88 1013.2
20260906000821 23 0.0 0.0 0.00 0.03 0.03 86 1013.1
20260905235821 24 0.0 0.0 0.00 0.03 0.03 85 1013.0
20260905234841 25 0.0 0.0 0.00 0.03 0.03 82 1012.9
20260905233821 25 0.0 0.0 0.00 0.03 0.03 80 1012.8
20260905232821 26 0.0 0.0 0.00 0.03 0.03 78 1012.7
20260905231841 26 0.0 0.0 0.00 0.03 0.03 75 1012.4
20260905230821 27 338 1.6 1.6 0.00 0.03 0.03 73 1012.4
20260905225821 27 158 1.6 3.2 0.00 0.03 0.03 70 1012.5
20260905224821 28 347 3.2 4.8 0.00 0.03 0.03 69 1012.4
20260905223821 28 0.0 3.2 0.00 0.03 0.03 69 1012.5
20260905222821 28 167 3.2 3.2 0.00 0.03 0.03 67 1012.3
20260905221821 28 288 3.2 3.2 0.00 0.03 0.03 68 1012.4
20260905220841 27 123 4.8 4.8 0.00 0.03 0.03 72 1012.5
20260905215821 27 148 4.8 4.8 0.00 0.03 0.03 70 1012.5
20260905214821 26 54 3.2 3.2 0.00 0.03 0.03 75 1012.6
20260905213821 26 183 3.2 3.2 0.00 0.03 0.03 73 1012.8
20260905212901 26 206 4.8 4.8 0.00 0.03 0.03 72 1012.7
20260905211821 25 160 6.4 9.7 0.00 0.03 0.03 75 1012.9
20260905210821 25 134 3.2 4.8 0.00 0.03 0.03 83 1013.1
20260905205821 24 112 4.8 6.4 0.00 0.03 0.03 85 1013.3
20260905204821 23 113 3.2 6.4 0.00 0.03 0.03 87 1013.4
20260905203821 23 101 1.6 1.6 0.00 0.03 0.03 88 1013.6
20260905202821 22 0.0 0.0 0.00 0.03 0.03 87 1013.5
20260905201821 23 71 1.6 3.2 0.00 0.03 0.03 87 1013.7
20260905200821 23 53 1.6 3.2 0.00 0.03 0.03 86 1013.5
20260905195841 23 9 1.6 3.2 0.03 0.03 0.03 85 1013.2
20260905194821 23 14 1.6 3.2 0.03 0.03 0.03 83 1013.1
20260905193821 23 144 3.2 4.8 0.03 0.03 0.03 82 1013.7
20260905192821 23 151 4.8 6.4 0.03 0.03 0.03 86 1014.0
20260905191821 24 50 3.2 4.8 0.03 0.03 0.03 82 1012.9
20260905190841 26 116 8.0 11.3 0.03 0.03 0.03 73 1013.1
20260905185821 31 185 8.0 12.9 0.00 0.00 0.00 60 1013.3
20260905184821 34 262 8.0 9.7 0.00 0.00 0.00 49 1013.1
20260905183821 35 320 4.8 8.0 0.00 0.00 0.00 47 1013.0
20260905182821 36 175 8.0 9.7 0.00 0.00 0.00 44 1012.7
20260905181821 36 310 4.8 6.4 0.00 0.00 0.00 43 1013.1
20260905180821 37 223 3.2 4.8 0.00 0.00 0.00 44 1013.2
20260905175921 36 306 3.2 4.8 0.00 0.00 0.00 46 1013.5
20260905174821 36 146 4.8 6.4 0.00 0.00 0.00 48 1013.8
20260905173841 35 98 3.2 3.2 0.00 0.00 0.00 48 1013.9
20260905172821 36 122 3.2 4.8 0.00 0.00 0.00 45 1014.1
20260905171821 35 44 3.2 4.8 0.00 0.00 0.00 47 1014.3
20260905170822 36 197 3.2 6.4 0.00 0.00 0.00 47 1014.4
20260905165902 37 21 4.8 6.4 0.00 0.00 0.00 44 1014.5
20260905164821 36 163 6.4 8.0 0.00 0.00 0.00 47 1014.7
20260905163821 36 182 3.2 4.8 0.00 0.00 0.00 45 1014.8
20260905162821 36 83 4.8 6.4 0.00 0.00 0.00 50 1014.9
20260905161822 36 282 4.8 4.8 0.00 0.00 0.00 51 1014.9
20260905160901 36 92 6.4 8.0 0.00 0.00 0.00 52 1015.1
20260905155821 36 59 1.6 4.8 0.00 0.00 0.00 52 1015.2
20260905154821 35 301 3.2 4.8 0.00 0.00 0.00 53 1015.2
20260905153821 35 7 4.8 4.8 0.00 0.00 0.00 58 1015.2
20260905152822 34 89 3.2 3.2 0.00 0.00 0.00 56 1015.2
20260905151821 34 93 3.2 4.8 0.00 0.00 0.00 58 1015.2
20260905150841 33 74 3.2 4.8 0.00 0.00 0.00 60 1015.2
20260905145821 33 234 4.8 4.8 0.00 0.00 0.00 62 1015.3
20260905144821 32 87 3.2 4.8 0.00 0.00 0.00 64 1015.4
20260905143822 32 215 6.4 8.0 0.00 0.00 0.00 65 1015.3
20260905142821 32 231 4.8 4.8 0.00 0.00 0.00 68 1015.3
20260905141821 31 70 1.6 3.2 0.00 0.00 0.00 69 1015.2
20260905140821 31 88 4.8 4.8 0.00 0.00 0.00 70 1015.3
20260905135821 30 91 4.8 6.4 0.00 0.00 0.00 72 1015.4
20260905134822 30 109 3.2 4.8 0.00 0.00 0.00 73 1015.4
20260905134002 29 84 1.6 4.8 0.00 0.00 0.00 75 1015.4
20260905132821 28 117 4.8 6.4 0.00 0.00 0.00 76 1015.6
20260905131822 28 79 1.6 3.2 0.00 0.00 0.00 78 1015.7
20260905130822 28 74 3.2 4.8 0.00 0.00 0.00 79 1015.6
20260905125822 27 109 1.6 4.8 0.00 0.00 0.00 81 1015.7
20260905124821 26 92 1.6 1.6 0.00 0.00 0.00 84 1015.7
20260905123821 26 0.0 0.0 0.00 0.00 0.00 88 1015.7
20260905122842 24 0.0 0.0 0.00 0.00 0.00 95 1015.7
20260905121822 23 0.0 0.0 0.00 0.00 0.00 97 1015.7
20260905120822 22 0.0 0.0 0.00 0.00 0.00 96 1015.6
20260905115842 22 0.0 0.0 0.00 0.00 0.00 97 1015.5
20260905114841 22 0.0 0.0 0.00 0.00 0.00 97 1015.5
20260905113822 22 0.0 0.0 0.00 0.00 0.00 96 1015.4
20260905112821 22 0.0 0.0 0.00 0.00 0.00 96 1015.3
20260905111822 22 0.0 0.0 0.00 0.00 0.00 96 1015.1
20260905110842 22 0.0 0.0 0.00 0.00 0.00 95 1014.9
20260905105822 22 0.0 0.0 0.00 0.00 0.00 96 1014.6
20260905104821 22 0.0 0.0 0.00 0.00 0.00 95 1014.3
20260905103821 22 0.0 0.0 0.00 0.00 0.00 95 1014.3
20260905102822 22 0.0 0.0 0.00 0.00 0.00 94 1014.3
20260905101842 22 0.0 0.0 0.00 0.00 0.00 94 1014.2
20260905100822 22 0.0 0.0 0.00 0.00 0.00 94 1014.2
20260905095824 22 0.0 0.0 0.00 0.00 0.00 93 1014.1
20260905094821 22 0.0 0.0 0.00 0.00 0.00 93 1014.2
20260905093902 22 0.0 0.0 0.00 0.00 0.00 92 1014.2
20260905092822 23 0.0 0.0 0.00 0.00 0.00 92 1014.2
20260905091842 23 0.0 0.0 0.00 0.00 0.00 91 1014.1
20260905090822 23 0.0 0.0 0.00 0.00 0.00 91 1014.2
20260905085821 23 0.0 0.0 0.00 0.00 0.00 90 1014.2
20260905084844 23 85 3.2 3.2 0.00 0.00 0.00 91 1014.3
20260905083822 23 109 0.0 1.6 0.00 0.00 0.00 92 1014.4
20260905082822 23 73 1.6 3.2 0.00 0.00 0.00 92 1014.4
20260905081822 23 0.0 0.0 0.00 0.00 0.00 92 1014.6
20260905080822 23 0.0 0.0 0.00 0.00 0.00 92 1014.6
20260905075842 23 0.0 0.0 0.00 0.00 0.00 93 1014.6
20260905074822 23 0.0 1.6 0.00 0.00 0.00 93 1014.9
20260905073822 23 0.0 0.0 0.00 0.00 0.00 93 1014.9
20260905072822 23 0.0 0.0 0.00 0.00 0.00 93 1014.9
20260905071822 23 0.0 0.0 0.00 0.00 0.00 92 1015.0
20260905070821 23 0.0 0.0 0.00 0.00 0.00 92 1015.1
20260905065842 23 0.0 0.0 0.00 0.00 0.00 91 1015.2
20260905064822 23 0.0 0.0 0.00 0.00 0.00 91 1015.4
20260905063842 23 0.0 0.0 0.00 0.00 0.00 91 1015.5
20260905062822 23 0.0 0.0 0.00 0.00 0.00 91 1015.6
20260905061822 23 0.0 0.0 0.00 0.00 0.00 90 1015.6